Change the Weather History Date:

Thursday, June 20, 2013

  Actual Average Record
Temperature  
Mean Temperature 62 °F -  
Max Temperature 71 °F 66 °F 77 °F (2000)
Min Temperature 54 °F 50 °F 42 °F (2004)
Degree Days  
Heating Degree Days 2    
Growing Degree Days 12 (Base 50)    
Moisture  
Dew Point 54 °F    
Average Humidity 73    
Maximum Humidity 97    
Minimum Humidity 42    
Precipitation  
Precipitation 0.00 in 0.10 in - ()
Sea Level Pressure  
Sea Level Pressure 29.91 in    
Wind  
Wind Speed 5 mph ()    
Max Wind Speed 12 mph    
Max Gust Speed -    
Visibility 6.0 miles    
Events Rain    
Averages and records for this station are not official NWS values.
T = Trace of Precipitation, MM = Missing Value Source: Averaged Metar Reports

Daily Weather History Graph

Daily Weather History Graph

Search for Another Location

Airport or City:

Trip Planner

Search our weather history database for the weather conditions in past years. The results will help you decide how hot, cold, wet, or windy it might be!

Date:

Astronomy

Jun. 20, 2013 Rise Set
Actual Time 3:48 AM CEST 10:45 PM CEST
Civil Twilight 1:55 AM CEST 12:39 AM CEST
Nautical Twilight Sun does not rise Sun does not rise
Astronomical Twilight Sun does not rise Sun does not rise
Moon 6:47 PM CEST (6/20) 1:56 AM CEST (6/20)
Length of Visible Light 22h 44m
Length of Day
18h 56m
Waxing Gibbous, 87% of the Moon is Illuminated
Jun 20
Waxing Gibbous
Jun 23
Full
Jun 30
Last Quarter
Jul 8
New
Jul 16
First Quarter

Hourly Weather History & Observations

Time (CEST) Temp. Dew Point Humidity Pressure Visibility Wind Dir Wind Speed Gust Speed Precip Events Conditions
12:20 AM 55.4 °F 53.6 °F 94% 29.89 in 6.2 mi ESE 3.5 mph - N/A   Mostly Cloudy
12:50 AM 55.4 °F 53.6 °F 94% 29.86 in 6.2 mi Variable 2.3 mph - N/A   Mostly Cloudy
1:20 AM 55.4 °F 53.6 °F 94% 29.89 in 6.2 mi Variable 2.3 mph - N/A   Mostly Cloudy
1:50 AM 55.4 °F 53.6 °F 94% 29.89 in 6.2 mi SSE 5.8 mph - N/A   Mostly Cloudy
2:00 AM 54 °F 53 °F 97%  in 5 mi SE 2.2 mph - - Rain Light Rain
2:20 AM 55.4 °F 53.6 °F 94% 29.86 in 6.2 mi SSE 4.6 mph - N/A   Mostly Cloudy
2:50 AM 55.4 °F 53.6 °F 94% 29.89 in 6.2 mi South 5.8 mph - N/A   Mostly Cloudy
3:20 AM 55.4 °F 53.6 °F 94% 29.89 in 6.2 mi South 6.9 mph - N/A   Mostly Cloudy
3:50 AM 55.4 °F 53.6 °F 94% 29.89 in 6.2 mi South 6.9 mph - N/A   Mostly Cloudy
4:20 AM 55.4 °F 53.6 °F 94% 29.89 in 3.7 mi South 6.9 mph - N/A Rain Light Rain
4:50 AM 55.4 °F 53.6 °F 94% 29.89 in 5.0 mi South 5.8 mph - N/A   Mostly Cloudy
5:20 AM 55.4 °F 53.6 °F 94% 29.89 in 5.6 mi South 8.1 mph - N/A   Mostly Cloudy
5:50 AM 55.4 °F 53.6 °F 94% 29.89 in 6.2 mi South 6.9 mph - N/A   Mostly Cloudy
6:20 AM 55.4 °F 53.6 °F 94% 29.89 in 6.2 mi SSW 8.1 mph - N/A   Mostly Cloudy
6:50 AM 55.4 °F 53.6 °F 94% 29.89 in 6.2 mi WSW 3.5 mph - N/A   Scattered Clouds
7:20 AM 57.2 °F 53.6 °F 88% 29.89 in 6.2 mi Variable 2.3 mph - N/A   Partly Cloudy
7:50 AM 59.0 °F 53.6 °F 82% 29.89 in 6.2 mi Variable 1.2 mph - N/A   Partly Cloudy
8:00 AM 59 °F 54 °F 78%  in 40 mi South 6.7 mph - -   Partly Cloudy
8:20 AM 59.0 °F 53.6 °F 82% 29.89 in 6.2 mi South 5.8 mph - N/A   Partly Cloudy
8:50 AM 62.6 °F 55.4 °F 77% 29.92 in 6.2 mi South 4.6 mph - N/A   Partly Cloudy
9:20 AM 62.6 °F 57.2 °F 82% 29.92 in 6.2 mi SE 4.6 mph - N/A   Scattered Clouds
9:50 AM 64.4 °F 55.4 °F 73% 29.92 in 6.2 mi SSW 4.6 mph - N/A   Partly Cloudy
10:20 AM 62.6 °F 55.4 °F 77% 29.92 in 6.2 mi Variable 4.6 mph - N/A   Partly Cloudy
10:50 AM 66.2 °F 55.4 °F 68% 29.92 in 6.2 mi SE 5.8 mph - N/A   Partly Cloudy
11:20 AM 68.0 °F 57.2 °F 68% 29.92 in 6.2 mi SSE 5.8 mph - N/A   Scattered Clouds
11:50 AM 66.2 °F 55.4 °F 68% 29.95 in 6.2 mi South 9.2 mph - N/A   Scattered Clouds
12:50 PM 68.0 °F 55.4 °F 64% 29.92 in 6.2 mi South 10.4 mph - N/A   Partly Cloudy
1:20 PM 68.0 °F 55.4 °F 64% 29.92 in 6.2 mi South 9.2 mph - N/A   Scattered Clouds
1:50 PM 68.0 °F 55.4 °F 64% 29.95 in 6.2 mi South 11.5 mph - N/A   Partly Cloudy
2:00 PM 69 °F 54 °F 50%  in 40 mi South 8.9 mph - -   Partly Cloudy
2:20 PM 69.8 °F 55.4 °F 60% 29.95 in 6.2 mi South 11.5 mph - N/A   Partly Cloudy
2:50 PM 69.8 °F 55.4 °F 60% 29.92 in 6.2 mi South 11.5 mph - N/A   Scattered Clouds
3:20 PM 69.8 °F 53.6 °F 56% 29.92 in 6.2 mi South 11.5 mph - N/A   Scattered Clouds
3:50 PM 71.6 °F 53.6 °F 53% 29.92 in 6.2 mi SSE 11.5 mph - N/A   Scattered Clouds
4:20 PM 69.8 °F 51.8 °F 53% 29.92 in 6.2 mi South 10.4 mph - N/A   Partly Cloudy
4:50 PM 69.8 °F 50.0 °F 49% 29.92 in 6.2 mi South 9.2 mph - N/A   Partly Cloudy
5:20 PM 69.8 °F 51.8 °F 53% 29.92 in 6.2 mi South 9.2 mph - N/A   Scattered Clouds
5:50 PM 71.6 °F 50.0 °F 46% 29.92 in 6.2 mi South 10.4 mph - N/A   Scattered Clouds
6:20 PM 71.6 °F 51.8 °F 50% 29.92 in - South 10.4 mph - N/A   Clear
6:50 PM 69.8 °F 51.8 °F 53% 29.92 in - South 10.4 mph - N/A   Clear
7:20 PM 71.6 °F 51.8 °F 50% 29.92 in - SSW 10.4 mph - N/A   Clear
7:50 PM 71.6 °F 53.6 °F 53% 29.92 in - SSW 9.2 mph - N/A   Clear
8:00 PM 71 °F 53 °F 42%  in 44 mi SSW 8.9 mph - -   Partly Cloudy
8:20 PM 69.8 °F 53.6 °F 56% 29.92 in - South 9.2 mph - N/A   Clear
8:50 PM 69.8 °F 55.4 °F 60% 29.95 in - SSW 9.2 mph - N/A   Clear
9:20 PM 68.0 °F 55.4 °F 64% 29.95 in - SW 4.6 mph - N/A   Clear
9:50 PM 66.2 °F 55.4 °F 68% 29.95 in - SW 3.5 mph - N/A   Clear
10:20 PM 64.4 °F 55.4 °F 73% 29.95 in - SW 3.5 mph - N/A   Clear
10:50 PM 62.6 °F 53.6 °F 72% 29.95 in - SSW 3.5 mph - N/A   Clear
11:20 PM 62.6 °F 53.6 °F 72% 29.95 in - SSW 3.5 mph - N/A   Clear
11:50 PM 60.8 °F 53.6 °F 77% 29.95 in - Calm Calm - N/A   Clear